Location: Lake Zurich
(42.1970°N, 88.0930°W)
Time: 17:08:18
(UTC-05:00)

Amateur Radio Satellites - All Passes

Search period start: 29 August 2014 16:38
Search period end: 30 August 2014 16:38
Location: Lake Zurich, 42.1970°N, 88.0930°W

Satellite Date Start Highest point End Downlink Frequencies (MHz)
Time Altitude Azimuth
ISS 29 Aug 16:52:22 16:55:35 43° 28° (NNE) 16:58:47 145.800 FM
Hamsat 29 Aug 16:55:32 16:58:28 18° 65° (ENE) 17:01:25 145.90 MHz
JAS-2 29 Aug 17:35:49 17:41:50 53° 72° (ENE) 17:47:14 435.800 - 435.900 CW/SSB, 435.910 FM
AO-7 29 Aug 17:40:42 17:47:41 29° 265° (W) 17:54:43 29.400 - 29.500 MHz
OPAL 29 Aug 17:46:45 17:52:00 77° 288° (WNW) 17:57:11 ?
RS-15 29 Aug 17:47:34 17:58:33 71° 243° (WSW) 18:10:00 29.354 - 29.394 USB, Beacon 29.352 USB
Sapphire 29 Aug 17:49:45 17:55:09 79° 301° (WNW) 18:00:37 437.095 MHz 1200 baud AX-25 AFSK
PCSat 29 Aug 18:19:48 18:24:56 43° 307° (NW) 18:30:07 145.825 MHz
ISS 29 Aug 18:29:23 18:32:11 25° 225° (SW) 18:34:58 145.800 FM
Hamsat 29 Aug 18:29:59 18:34:05 43° 262° (W) 18:38:15 145.90 MHz
SO-67 29 Aug 18:41:08 18:44:14 31° 72° (ENE) 18:47:20 435.3500 MHz FM
HO-68 29 Aug 18:56:25 18:59:36 14° 49° (NE) 19:02:48 435.675 MHz FM
JAS-2 29 Aug 19:22:24 19:27:08 23° 266° (W) 19:31:32 435.800 - 435.900 CW/SSB, 435.910 FM
OPAL 29 Aug 19:28:20 19:29:59 12° 306° (NW) 19:31:39 ?
STRAND 1 29 Aug 19:28:30 19:33:30 54° 100° (E) 19:38:29 ?
Sapphire 29 Aug 19:36:19 19:39:30 16° 321° (NW) 19:42:41 437.095 MHz 1200 baud AX-25 AFSK
RS-15 29 Aug 20:03:15 20:08:51 15° 263° (W) 20:14:35 29.354 - 29.394 USB, Beacon 29.352 USB
UKube-1 29 Aug 20:13:04 20:15:25 15° 62° (ENE) 20:17:47 145.840 MHz, 145.915 MHz
SO-67 29 Aug 20:15:21 20:17:22 15° 268° (W) 20:19:24 435.3500 MHz FM
Oscar 11 29 Aug 20:21:59 20:22:53 11° 60° (ENE) 20:23:47 145.825 FM, Beacon 2401.500 USB
HO-68 29 Aug 20:38:56 20:45:58 65° 69° (ENE) 20:53:02 435.675 MHz FM
STRAND 1 29 Aug 21:08:39 21:12:17 20° 297° (WNW) 21:15:55 ?
MaSat-1 29 Aug 21:27:49 21:29:12 11° 40° (NE) 21:30:33 437.345 MHz
UKube-1 29 Aug 21:46:53 21:51:09 58° 259° (W) 21:55:27 145.840 MHz, 145.915 MHz
Oscar 11 29 Aug 21:54:04 21:58:24 81° 257° (WSW) 22:02:47 145.825 FM, Beacon 2401.500 USB
FUNcube-1 29 Aug 22:16:54 22:21:02 68° 75° (ENE) 22:25:16 145.950 - 145.970 MHz USB
HO-68 29 Aug 22:28:38 22:34:10 24° 267° (W) 22:39:45 435.675 MHz FM
Saudisat 1A 29 Aug 22:45:59 22:50:09 43° 117° (ESE) 22:54:21 436.775 MHz
MaSat-1 29 Aug 23:02:36 23:07:17 72° 62° (ENE) 23:11:17 437.345 MHz
KITSAT 1 29 Aug 23:32:45 23:40:32 54° 113° (ESE) 23:48:21 435.175 FM
FUNcube-1 29 Aug 23:57:40 23:57:56 10° 272° (W) 23:58:12 145.950 - 145.970 MHz USB
Saudisat 1A 30 Aug 00:26:17 00:29:54 24° 316° (NW) 00:33:32 436.775 MHz
MaSat-1 30 Aug 00:42:35 00:43:22 10° 263° (W) 00:44:08 437.345 MHz
Sapphire 30 Aug 00:54:59 00:58:35 18° 41° (NE) 01:02:10 437.095 MHz 1200 baud AX-25 AFSK
PCSat 30 Aug 01:24:00 01:28:40 28° 48° (NE) 01:33:19 145.825 MHz
KITSAT 1 30 Aug 01:28:42 01:36:11 40° 314° (NW) 01:43:43 435.175 FM
Oscar 19 30 Aug 01:35:09 01:39:16 23° 93° (E) 01:43:20 437.125 CW, 437.150 USB
JAS-1B 30 Aug 01:38:49 01:40:10 11° 82° (E) 01:41:29 435.800 - 435.900 CW/SSB
ITAMSAT 1 30 Aug 02:05:41 02:09:21 19° 92° (E) 02:13:01 435.822 SSB
Oscar 16 30 Aug 02:09:12 02:14:16 50° 100° (E) 02:19:17 437.025 USB, Beacon 2401.1428
AO-Echo 30 Aug 02:10:09 02:13:46 22° 94° (E) 02:17:23 ?
Uribyol 2 30 Aug 02:15:26 02:19:43 25° 95° (E) 02:23:58 436.500 FM
AO-27 30 Aug 02:33:40 02:38:26 36° 97° (E) 02:43:10 436.795 MHz FM
Sapphire 30 Aug 02:37:18 02:42:47 89° 240° (WSW) 02:48:12 437.095 MHz 1200 baud AX-25 AFSK
SO-50 30 Aug 02:46:55 02:47:28 10° 106° (ESE) 02:48:02 436.795 FM
Gurwin Techsat 1B 30 Aug 02:56:48 03:01:17 27° 95° (E) 03:05:44 435.225 FM
PCSat 30 Aug 03:07:06 03:12:18 47° 247° (WSW) 03:17:27 145.825 MHz
Oscar 19 30 Aug 03:13:51 03:18:47 44° 290° (WNW) 03:23:41 437.125 CW, 437.150 USB
OPAL 30 Aug 03:24:37 03:28:47 26° 63° (ENE) 03:33:01 ?
JAS-1B 30 Aug 03:25:22 03:32:18 83° 104° (ESE) 03:38:14 435.800 - 435.900 CW/SSB
KITSAT 1 30 Aug 03:29:57 03:34:15 15° 341° (NNW) 03:38:35 435.175 FM
ITAMSAT 1 30 Aug 03:44:07 03:49:09 53° 289° (WNW) 03:54:10 435.822 SSB
AO-Echo 30 Aug 03:48:20 03:52:41 38° 290° (WNW) 03:57:02 ?
TMSAT-1 30 Aug 03:48:25 03:53:40 59° 101° (E) 03:58:53 436.925 FM
AO-7 30 Aug 03:48:54 03:54:17 18° 90° (E) 03:59:38 29.400 - 29.500 MHz
Oscar 16 30 Aug 03:49:21 03:53:16 22° 297° (WNW) 03:57:10 437.025 USB, Beacon 2401.1428
Uribyol 2 30 Aug 03:54:28 03:59:18 40° 291° (WNW) 04:04:07 436.500 FM
AO-27 30 Aug 04:13:24 04:17:49 29° 294° (WNW) 04:22:15 436.795 MHz FM
SO-50 30 Aug 04:22:48 04:27:16 85° 304° (NW) 04:31:53 436.795 FM
Sapphire 30 Aug 04:23:27 04:25:21 12° 258° (WSW) 04:27:16 437.095 MHz 1200 baud AX-25 AFSK
Gurwin Techsat 1B 30 Aug 04:36:26 04:41:20 39° 291° (WNW) 04:46:13 435.225 FM
Uosat F 30 Aug 04:37:53 04:42:21 32° 97° (E) 04:46:49 435.120 FM
Oscar 10/S400 30 Aug 04:41:18 05:48:27 24° 247° (WSW) 08:32:47 145.825 - 145.975 CW/USB, Beacon 145.810 USB
UOSAT-12 30 Aug 04:48:53 04:51:34 15° 109° (ESE) 04:54:17 437.025 FM, 437.400 FM
OPAL 30 Aug 05:02:44 05:07:28 40° 260° (W) 05:12:17 ?
STRAND 1 30 Aug 05:10:14 05:11:39 11° 57° (ENE) 05:13:03 ?
JAS-1B 30 Aug 05:17:34 05:21:50 18° 307° (NW) 05:25:45 435.800 - 435.900 CW/SSB
TMSAT-1 30 Aug 05:29:27 05:33:07 19° 298° (WNW) 05:36:46 436.925 FM
KITSAT 1 30 Aug 05:30:19 05:33:55 13° 13° (NNE) 05:37:31 435.175 FM
AO-7 30 Aug 05:39:44 05:48:05 90° 289° (WNW) 05:56:22 29.400 - 29.500 MHz
RS-15 30 Aug 06:05:24 06:11:22 16° 98° (E) 06:17:16 29.354 - 29.394 USB, Beacon 29.352 USB
SO-50 30 Aug 06:06:00 06:08:34 15° 324° (NW) 06:11:11 436.795 FM
Hamsat 30 Aug 06:15:20 06:19:14 31° 96° (E) 06:23:05 145.90 MHz
Uosat F 30 Aug 06:16:44 06:21:04 30° 293° (WNW) 06:25:24 435.120 FM
UOSAT-12 30 Aug 06:26:35 06:31:10 64° 306° (NW) 06:35:52 437.025 FM, 437.400 FM
JAS-2 30 Aug 06:28:36 06:33:32 41° 99° (E) 06:38:48 435.800 - 435.900 CW/SSB, 435.910 FM
STRAND 1 30 Aug 06:44:54 06:50:00 82° 75° (ENE) 06:55:07 ?
Saudisat 1A 30 Aug 07:12:08 07:16:21 41° 50° (NE) 07:20:31 436.775 MHz
KITSAT 1 30 Aug 07:25:21 07:32:26 32° 41° (NE) 07:39:28 435.175 FM
AO-7 30 Aug 07:33:54 07:39:49 22° 309° (NW) 07:45:44 29.400 - 29.500 MHz
SO-67 30 Aug 07:37:07 07:40:19 34° 97° (E) 07:43:29 435.3500 MHz FM
Hamsat 30 Aug 07:51:33 07:55:03 24° 293° (WNW) 07:58:30 145.90 MHz
UOSAT-12 30 Aug 08:10:13 08:12:17 13° 327° (NNW) 08:14:21 437.025 FM, 437.400 FM
RS-15 30 Aug 08:10:41 08:21:43 75° 118° (ESE) 08:32:35 29.354 - 29.394 USB, Beacon 29.352 USB
JAS-2 30 Aug 08:14:16 08:18:30 26° 294° (WNW) 08:22:56 435.800 - 435.900 CW/SSB, 435.910 FM
STRAND 1 30 Aug 08:28:01 08:29:48 12° 271° (W) 08:31:35 ?
Saudisat 1A 30 Aug 08:52:15 08:55:41 22° 248° (WSW) 08:59:06 436.775 MHz
SO-67 30 Aug 09:11:12 09:13:04 14° 293° (WNW) 09:14:55 435.3500 MHz FM
KITSAT 1 30 Aug 09:20:29 09:28:32 72° 243° (WSW) 09:36:31 435.175 FM
UKube-1 30 Aug 09:35:14 09:38:39 22° 95° (E) 09:42:03 145.840 MHz, 145.915 MHz
Oscar 11 30 Aug 09:42:15 09:45:15 18° 92° (E) 09:48:13 145.825 FM, Beacon 2401.500 USB
HO-68 30 Aug 09:53:29 10:00:37 65° 103° (ESE) 10:07:42 435.675 MHz FM
FUNcube-1 30 Aug 10:06:53 10:09:14 14° 90° (E) 10:11:34 145.950 - 145.970 MHz USB
RS-15 30 Aug 10:25:03 10:35:03 38° 324° (NW) 10:45:04 29.354 - 29.394 USB, Beacon 29.352 USB
UKube-1 30 Aug 11:11:00 11:14:54 33° 291° (WNW) 11:18:48 145.840 MHz, 145.915 MHz
ISS 30 Aug 11:11:30 11:14:49 80° 145° (SE) 11:18:09 145.800 FM
SO-50 30 Aug 11:14:22 11:17:31 17° 39° (NE) 11:20:41 436.795 FM
Oscar 11 30 Aug 11:17:29 11:21:37 42° 289° (WNW) 11:25:43 145.825 FM, Beacon 2401.500 USB
KITSAT 1 30 Aug 11:19:06 11:22:28 13° 262° (W) 11:25:51 435.175 FM
FUNcube-1 30 Aug 11:41:30 11:45:58 60° 286° (WNW) 11:50:28 145.950 - 145.970 MHz USB
HO-68 30 Aug 11:42:04 11:47:47 27° 302° (WNW) 11:53:30 435.675 MHz FM
Oscar 16 30 Aug 11:52:24 11:53:18 10° 56° (NE) 11:54:12 437.025 USB, Beacon 2401.1428
JAS-1B 30 Aug 12:20:47 12:27:04 21° 55° (NE) 12:32:53 435.800 - 435.900 CW/SSB
RS-15 30 Aug 12:43:49 12:51:44 22° 358° (N) 12:59:44 29.354 - 29.394 USB, Beacon 29.352 USB
ISS 30 Aug 12:49:08 12:51:52 23° 343° (NNW) 12:54:36 145.800 FM
MaSat-1 30 Aug 12:50:46 12:55:01 31° 106° (ESE) 12:59:29 437.345 MHz
Oscar 19 30 Aug 12:52:22 12:57:02 35° 68° (ENE) 13:01:43 437.125 CW, 437.150 USB
SO-50 30 Aug 12:53:53 12:58:42 85° 238° (WSW) 13:03:33 436.795 FM
UOSAT-12 30 Aug 13:16:25 13:19:57 20° 41° (NE) 13:23:26 437.025 FM, 437.400 FM
AO-Echo 30 Aug 13:23:19 13:27:45 32° 68° (ENE) 13:32:06 ?
ITAMSAT 1 30 Aug 13:24:00 13:28:30 31° 67° (ENE) 13:33:01 435.822 SSB
PANSAT 30 Aug 13:25:31 13:26:04 10° 176° (S) 13:26:37 not established
Oscar 16 30 Aug 13:26:36 13:31:44 75° 74° (ENE) 13:36:55 437.025 USB, Beacon 2401.1428
TMSAT-1 30 Aug 13:33:18 13:35:49 14° 58° (ENE) 13:38:21 436.925 FM
Uribyol 2 30 Aug 13:33:43 13:38:30 40° 69° (ENE) 13:43:19 436.500 FM
AO-27 30 Aug 13:52:15 13:57:19 58° 72° (ENE) 14:02:24 436.795 MHz FM
JAS-1B 30 Aug 14:06:37 14:16:25 77° 72° (ENE) 14:25:12 435.800 - 435.900 CW/SSB
Gurwin Techsat 1B 30 Aug 14:18:15 14:23:16 45° 70° (ENE) 14:28:18 435.225 FM
ISS 30 Aug 14:27:17 14:29:29 16° 3° (N) 14:31:40 145.800 FM
MaSat-1 30 Aug 14:27:20 14:31:56 37° 304° (NW) 14:36:44 437.345 MHz
Oscar 19 30 Aug 14:31:56 14:36:23 29° 265° (W) 14:40:53 437.125 CW, 437.150 USB
SO-50 30 Aug 14:38:08 14:38:31 10° 254° (WSW) 14:38:53 436.795 FM
AO-7 30 Aug 14:48:14 14:55:09 30° 56° (NE) 15:02:03 29.400 - 29.500 MHz
UOSAT-12 30 Aug 14:55:51 15:00:33 66° 240° (WSW) 15:05:09 437.025 FM, 437.400 FM
RS-15 30 Aug 14:59:01 15:08:45 34° 33° (NNE) 15:18:43 29.354 - 29.394 USB, Beacon 29.352 USB
AO-Echo 30 Aug 15:02:07 15:06:30 29° 264° (W) 15:10:48 ?
ITAMSAT 1 30 Aug 15:03:19 15:07:56 33° 263° (W) 15:12:35 435.822 SSB
Oscar 16 30 Aug 15:09:16 15:11:39 13° 271° (W) 15:14:03 437.025 USB, Beacon 2401.1428
TMSAT-1 30 Aug 15:09:42 15:15:00 86° 256° (WSW) 15:20:19 436.925 FM
Oscar 10/S400 30 Aug 15:11:21 15:20:51 14° 145° (SE) 15:29:29 145.825 - 145.975 CW/USB, Beacon 145.810 USB
Uribyol 2 30 Aug 15:13:54 15:18:06 25° 266° (W) 15:22:20 436.500 FM
AO-27 30 Aug 15:33:47 15:37:12 18° 268° (W) 15:40:38 436.795 MHz FM
Uosat F 30 Aug 15:51:32 15:56:19 48° 70° (ENE) 16:01:07 435.120 FM
Gurwin Techsat 1B 30 Aug 15:59:13 16:03:25 24° 267° (W) 16:07:39 435.225 FM
JAS-1B 30 Aug 15:59:29 16:07:23 28° 268° (W) 16:14:46 435.800 - 435.900 CW/SSB
ISS 30 Aug 16:03:58 16:06:59 30° 23° (NNE) 16:09:59 145.800 FM
PCSat 30 Aug 16:07:27 16:11:21 21° 106° (ESE) 16:15:16 145.825 MHz
